Weather History for Athens Eleftherios, Greece

Change the Weather History Date:

Monday, May 27, 2013

  Actual Average Record
Temperature  
Mean Temperature 70 °F -  
Max Temperature 77 °F - - ()
Min Temperature 62 °F - - ()
Cooling Degree Days 4    
Growing Degree Days 20 (Base 50)    
Moisture  
Dew Point 41 °F    
Average Humidity 35    
Maximum Humidity 56    
Minimum Humidity 22    
Precipitation  
Precipitation 0.00 in - - ()
Sea Level Pressure  
Sea Level Pressure 29.96 in    
Wind  
Wind Speed 8 mph ()    
Max Wind Speed 16 mph    
Max Gust Speed 29 mph    
T = Trace of Precipitation, MM = Missing Value Source: Averaged Metar Reports

Daily Weather History Graph

Daily Weather History Graph

Search for Another Location

Airport:

Trip Planner

Search our weather history database for the weather conditions in past years. The results will help you decide how hot, cold, wet, or windy it might be!

Date:

Astronomy

May. 27, 2013 Rise Set
Actual Time 6:05 AM EEST 8:37 PM EEST
Civil Twilight 5:35 AM EEST 9:07 PM EEST
Nautical Twilight 4:57 AM EEST 9:45 PM EEST
Astronomical Twilight 4:15 AM EEST 10:27 PM EEST
Moon 11:02 PM EEST (5/27) 8:20 AM EEST (5/27)
Length of Visible Light 15h 32m
Length of Day
14h 31m
Waning Gibbous, 93% of the Moon is Illuminated
May 27
Waning Gibbous
May 31
Last Quarter
Jun 8
New
Jun 16
First Quarter
Jun 23
Full

Hourly Weather History & Observations

Time (EEST) Temp. Dew Point Humidity Pressure Visibility Wind Dir Wind Speed Gust Speed Precip Events Conditions
12:20 AM 69.8 °F 46.4 °F 43% 29.92 in - South 8.1 mph - N/A   Clear
12:50 AM 69.8 °F 44.6 °F 40% 29.92 in - Variable 1.2 mph - N/A   Clear
1:20 AM 68.0 °F 42.8 °F 40% 29.92 in - WSW 5.8 mph - N/A   Clear
1:50 AM 68.0 °F 42.8 °F 40% 29.92 in - West 13.8 mph - N/A   Clear
2:20 AM 68.0 °F 42.8 °F 40% 29.92 in - WNW 9.2 mph - N/A   Clear
2:50 AM 66.2 °F 41.0 °F 40% 29.92 in - WNW 9.2 mph - N/A   Clear
3:20 AM 66.2 °F 39.2 °F 37% 29.92 in - West 8.1 mph - N/A   Clear
3:50 AM 66.2 °F 35.6 °F 32% 29.92 in - WNW 9.2 mph - N/A   Clear
4:20 AM 66.2 °F 35.6 °F 32% 29.92 in - WNW 11.5 mph - N/A   Clear
4:50 AM 66.2 °F 33.8 °F 30% 29.92 in - WNW 12.7 mph - N/A   Clear
5:20 AM 66.2 °F 35.6 °F 32% 29.95 in - Variable 2.3 mph - N/A   Clear
5:50 AM 66.2 °F 32.0 °F 28% 29.95 in - NW 8.1 mph - N/A   Clear
6:20 AM 62.6 °F 37.4 °F 39% 29.95 in - Variable 2.3 mph - N/A   Clear
6:50 AM 66.2 °F 37.4 °F 35% 29.95 in - NNW 8.1 mph - N/A   Clear
7:20 AM 68.0 °F 35.6 °F 30% 29.98 in - NW 6.9 mph - N/A   Clear
7:50 AM 68.0 °F 37.4 °F 33% 29.95 in - NW 4.6 mph - N/A   Clear
8:20 AM 69.8 °F 37.4 °F 31% 29.98 in - Variable 3.5 mph - N/A   Clear
8:50 AM 71.6 °F 35.6 °F 27% 29.98 in - NNE 4.6 mph - N/A   Clear
9:20 AM 71.6 °F 37.4 °F 29% 29.98 in - North 5.8 mph - N/A   Clear
9:50 AM 73.4 °F 33.8 °F 23% 29.98 in - NE 6.9 mph - N/A   Clear
10:20 AM 75.2 °F 33.8 °F 22% 29.98 in - North 6.9 mph - N/A   Clear
10:50 AM 73.4 °F 41.0 °F 31% 29.98 in - NNE 8.1 mph - N/A   Clear
11:20 AM 73.4 °F 42.8 °F 33% 29.98 in - East 10.4 mph - N/A   Clear
11:50 AM 75.2 °F 41.0 °F 29% 29.98 in - East 8.1 mph - N/A   Clear
12:20 PM 73.4 °F 41.0 °F 31% 29.98 in - ENE 9.2 mph - N/A   Clear
12:50 PM 75.2 °F 37.4 °F 25% 29.98 in - ENE 10.4 mph - N/A   Clear
1:20 PM 75.2 °F 35.6 °F 24% 30.01 in - ENE 9.2 mph - N/A   Clear
1:50 PM 77.0 °F 35.6 °F 22% 29.98 in - East 9.2 mph - N/A   Clear
2:20 PM 75.2 °F 41.0 °F 29% 29.98 in - East 11.5 mph - N/A   Clear
2:50 PM 77.0 °F 42.8 °F 29% 29.98 in - East 11.5 mph - N/A   Clear
3:20 PM 75.2 °F 44.6 °F 34% 29.98 in - East 15.0 mph - N/A   Clear
3:50 PM 77.0 °F 44.6 °F 32% 29.98 in - ESE 13.8 mph - N/A   Clear
4:20 PM 77.0 °F 44.6 °F 32% 29.95 in - ESE 15.0 mph - N/A   Clear
4:50 PM 77.0 °F 44.6 °F 32% 29.95 in - SSE 13.8 mph 28.8 mph N/A   Clear
5:20 PM 77.0 °F 37.4 °F 24% 29.95 in - South 13.8 mph - N/A   Clear
5:50 PM 75.2 °F 41.0 °F 29% 29.95 in - SSW 13.8 mph - N/A   Clear
6:20 PM 75.2 °F 41.0 °F 29% 29.95 in - South 12.7 mph - N/A   Clear
6:50 PM 73.4 °F 41.0 °F 31% 29.95 in - South 13.8 mph - N/A   Clear
7:20 PM 73.4 °F 39.2 °F 29% 29.95 in - SSW 16.1 mph - N/A   Clear
7:50 PM 71.6 °F 41.0 °F 33% 29.95 in - SSW 11.5 mph - N/A   Clear
8:20 PM 69.8 °F 44.6 °F 40% 29.95 in - SSW 10.4 mph - N/A   Clear
8:50 PM 69.8 °F 48.2 °F 46% 29.95 in - SW 5.8 mph - N/A   Clear
9:20 PM 68.0 °F 50.0 °F 52% 29.98 in - SW 6.9 mph - N/A   Clear
9:50 PM 68.0 °F 48.2 °F 49% 29.98 in - SW 6.9 mph - N/A   Clear
10:20 PM 68.0 °F 48.2 °F 49% 29.98 in - Variable 3.5 mph - N/A   Clear
10:50 PM 64.4 °F 48.2 °F 56% 29.98 in - Variable 2.3 mph - N/A   Clear
11:20 PM 62.6 °F 44.6 °F 52% 29.98 in - NW 2.3 mph - N/A   Clear
11:50 PM 62.6 °F 44.6 °F 52% 29.98 in - Variable 2.3 mph - N/A   Clear